Wind_Speed
10 11 10 9 8 8 5 3 6 4 3 6 8 9 8 6 4 6 6 5 6 6 6 6 6 6 6 6 5 5 6 6 7 8 8 8 8 8 9 9 8 8 9 11 13 15 16 14 12
10 10 9 7 6 4 3 3 3 2 2 1 5 8 8 7 7 7 6 6 7 8 8 8 8 8 8 7 7 7 6 5 5 6 7 7 7 7 8 8 8 8 9 12 13 13 14 14 13
11 9 7 4 4 3 4 3 3 4 2 2 4 6 6 6 8 8 8 8 10 10 9 9 9 9 9 8 8 8 7 7 6 6 7 7 8 8 8 8 7 8 10 11 12 12 13 13 13
10 9 7 6 7 6 8 9 9 7 6 5 5 5 5 6 8 8 8 9 10 10 10 10 10 10 9 8 8 8 9 9 10 11 10 10 10 10 10 9 9 10 11 11 11 11 11 12 12
12 10 8 8 13 12 12 15 14 11 8 9 8 7 5 6 7 7 8 9 9 9 9 10 10 10 9 9 9 10 11 13 15 16 16 15 14 14 13 12 12 12 13 13 12 12 12 12 12
15 12 9 8 12 13 12 16 18 17 11 8 8 8 6 5 6 7 7 8 8 8 8 9 9 9 11 12 14 15 17 18 20 20 20 19 19 18 18 16 15 15 16 16 15 15 15 16 15
18 15 9 4 8 11 12 16 19 20 16 9 9 9 8 7 7 8 9 10 9 10 11 12 12 13 14 15 17 18 20 21 22 23 23 23 22 22 21 20 20 20 20 20 19 19 19 19 19
20 17 13 8 11 12 11 14 19 20 18 14 13 12 10 11 10 10 12 14 13 14 16 17 17 17 18 19 20 20 21 22 23 24 23 23 24 24 23 23 23 23 23 23 24 24 23 23 23
20 18 16 15 18 17 12 14 18 20 19 16 15 16 13 14 15 14 14 17 18 19 21 23 23 23 22 22 22 21 21 22 23 23 23 23 23 24 23 23 24 25 25 26 27 27 26 25 25
21 19 18 22 22 22 16 15 19 22 20 19 19 18 18 18 19 18 16 19 22 23 25 27 28 28 26 24 23 22 22 22 21 21 22 23 24 24 23 22 23 25 26 27 29 28 28 27 27
20 18 21 27 28 27 22 21 21 24 24 22 22 24 25 23 22 23 23 23 27 30 30 31 31 29 27 25 24 23 23 22 21 21 22 24 25 25 24 22 21 22 23 25 27 29 29 28 28
20 18 22 28 32 31 29 28 25 25 28 28 29 29 29 27 27 29 30 29 30 34 36 36 34 31 28 26 25 24 23 22 22 23 24 24 25 24 23 22 22 22 21 21 22 25 26 25 25
22 21 22 26 31 33 33 32 30 29 30 33 34 34 33 32 32 34 35 36 36 36 38 39 37 34 30 28 27 25 23 23 23 24 24 24 24 24 22 22 21 22 21 19 18 19 20 21 22
22 23 21 21 24 31 34 33 32 29 30 33 33 33 33 33 35 37 38 40 41 42 41 41 41 38 34 31 29 26 24 23 23 23 24 24 24 23 23 22 22 21 20 18 18 19 19 21 22
22 21 19 19 21 23 29 30 28 26 26 29 30 31 33 35 38 40 42 43 44 45 43 41 41 43 40 34 31 27 25 25 23 23 23 22 22 22 21 20 21 20 19 18 18 19 20 21 22
21 19 15 15 17 18 23 23 19 22 22 25 29 32 35 37 39 42 44 46 47 44 44 44 42 43 40 35 31 28 25 24 23 22 21 20 20 20 19 18 18 19 19 19 19 19 21 21 22
18 15 12 12 12 13 16 14 13 19 22 25 30 34 37 39 42 45 47 49 47 43 43 41 39 38 36 33 29 24 22 23 23 23 21 19 18 18 18 17 17 18 18 18 18 20 20 20 19
14 13 10 10 10 11 12 14 18 22 26 29 31 34 37 41 46 48 51 51 53 52 48 40 36 31 28 25 21 19 20 21 22 22 21 20 18 18 18 17 16 16 16 16 17 17 18 17 16
12 13 14 13 12 13 15 19 22 26 29 32 34 37 40 44 47 49 50 53 53 52 51 46 32 21 18 16 15 16 19 20 21 22 21 21 19 19 18 17 16 15 15 15 15 15 16 16 16
12 15 18 19 19 18 20 23 26 30 32 35 38 41 43 43 44 44 45 47 47 46 44 36 26 19 18 18 18 18 19 20 19 19 19 19 19 19 18 18 17 16 15 15 15 16 17 18 18
12 14 17 22 24 24 26 27 29 32 36 38 38 37 36 35 35 37 39 41 41 40 37 35 28 25 21 20 20 20 17 16 16 17 16 16 17 17 18 18 17 17 16 16 17 17 18 20 20
8 11 14 16 19 23 26 30 31 33 35 35 34 32 31 31 33 35 37 38 38 37 36 35 32 29 25 24 24 21 19 19 18 18 16 15 16 18 18 19 19 19 19 19 19 19 20 21 23
10 11 12 11 10 11 13 18 21 24 28 30 30 29 27 28 31 35 37 39 40 38 36 34 34 34 32 31 29 26 24 24 23 22 20 19 19 20 20 21 22 22 22 22 22 22 23 24 25
13 13 11 9 9 11 13 16 18 21 23 23 22 22 24 28 32 36 39 42 43 42 40 39 39 39 39 39 37 35 33 31 31 30 28 26 25 24 24 24 24 25 25 26 25 25 26 27 27
11 11 9 9 11 13 16 18 20 22 23 21 20 20 23 27 33 38 43 45 47 47 47 46 45 45 45 45 45 44 42 41 40 39 38 36 34 32 30 29 28 29 29 29 29 28 28 29 29
10 13 15 14 16 17 19 22 23 25 25 26 27 27 29 33 38 43 46 49 50 50 50 50 50 49 50 50 49 49 49 48 47 47 47 46 45 42 39 37 36 35 35 34 33 32 31 31 31
14 17 17 17 18 20 22 23 25 27 29 32 34 36 40 43 46 49 51 53 54 54 54 54 53 53 53 53 53 54 54 54 53 53 52 52 52 51 49 47 45 43 42 40 39 37 36 35 34
18 19 17 18 20 22 25 28 30 32 35 37 41 44 47 50 52 55 56 58 59 59 60 60 60 59 59 59 59 59 59 59 59 58 58 57 57 56 56 55 54 52 50 47 45 42 41 40 38
16 14 14 17 21 24 28 30 32 36 39 42 45 47 49 52 54 57 59 60 62 64 65 66 67 68 68 67 67 66 66 65 65 64 63 62 62 61 60 60 59 59 57 54 51 48 46 44 42
17 17 18 20 22 25 29 33 37 40 42 44 47 49 52 54 57 60 62 64 67 69 71 73 74 75 74 74 73 71 70 69 69 69 69 69 67 66 65 64 63 62 61 59 57 53 51 48 46
Wind_Direction
147 148 150 157 166 174 205 150 124 167 262 313 312 312 324 331 298 264 275 257 252 247 246 251 257 263 268 278 297 316 330 340 346 352 357 359 359 358 358 355 356 1 1 358 356 356 356 356 353
165 166 167 174 196 215 221 156 146 204 184 246 281 287 300 307 298 294 290 279 269 259 254 257 260 261 264 273 289 300 308 315 329 343 348 346 344 344 343 340 338 342 348 355 359 0 2 3 3
180 180 183 201 245 321 337 294 247 269 267 194 250 271 281 283 284 284 280 278 270 265 265 269 271 270 275 282 290 293 293 297 307 318 323 321 320 322 322 319 315 315 327 341 353 359 1 3 6
197 200 213 244 271 311 340 328 310 286 301 311 302 296 280 280 281 278 276 278 274 267 266 269 270 269 273 279 285 289 292 294 298 301 302 302 301 300 300 299 294 292 302 318 332 341 345 348 352
213 219 234 268 283 298 319 323 315 300 295 310 311 316 305 293 288 290 288 284 281 276 271 270 271 272 273 275 279 285 289 292 293 294 295 293 290 289 287 285 282 279 284 298 308 314 319 324 328
223 226 238 286 299 303 313 314 313 303 285 299 311 317 323 315 303 302 300 290 284 278 271 269 272 276 279 282 286 289 290 290 289 288 288 288 286 285 284 282 277 273 274 283 292 296 300 303 305
229 225 222 247 290 297 313 314 314 311 305 303 312 306 310 312 305 301 300 290 281 274 271 273 280 284 287 290 292 292 291 290 288 287 287 286 284 283 281 279 276 273 273 276 281 284 287 290 291
240 228 210 220 258 272 303 312 309 308 307 309 311 305 307 302 293 287 288 285 280 278 278 279 284 287 291 295 297 297 297 295 292 290 289 287 284 282 280 278 275 273 272 273 275 278 280 282 283
249 238 215 221 246 257 278 301 299 297 298 301 306 303 299 298 292 282 284 285 284 283 284 284 285 287 289 293 296 297 298 298 296 294 292 290 288 286 284 280 276 274 274 274 274 276 277 278 279
254 244 225 227 241 249 258 276 284 286 288 293 300 301 300 299 300 292 288 289 290 288 287 286 285 286 288 292 295 297 300 299 298 296 295 293 291 289 287 282 278 275 274 273 273 274 275 275 277
260 248 230 228 238 244 246 252 263 276 279 286 293 299 301 299 297 294 289 289 291 290 289 285 283 284 286 290 295 298 302 300 298 297 296 294 291 288 286 281 277 275 273 274 274 274 273 273 276
270 263 245 234 238 243 246 251 254 262 271 280 286 290 293 294 294 293 291 289 289 289 287 283 281 281 283 287 291 296 299 297 295 295 295 294 291 289 286 281 277 275 275 276 277 275 271 269 270
271 267 259 251 249 251 251 255 260 260 266 273 277 282 286 290 293 292 290 289 288 287 284 279 277 277 278 281 286 290 291 292 294 296 295 293 291 291 290 285 278 274 272 272 273 272 267 264 265
271 272 271 266 263 257 258 261 262 264 267 269 273 279 284 286 286 287 288 288 288 286 279 274 269 267 266 271 274 277 280 283 288 291 292 292 291 290 288 283 277 272 268 266 267 263 259 258 259
270 268 266 262 259 257 255 257 260 263 264 268 272 276 281 283 282 281 282 283 282 280 275 270 256 253 253 257 262 267 275 279 283 287 290 292 292 293 292 287 282 274 267 264 259 256 255 256 257
269 263 253 256 258 256 255 257 254 255 259 266 270 273 276 278 280 282 284 285 281 274 272 267 251 245 243 248 254 262 273 281 289 293 295 295 297 298 296 293 285 276 269 264 256 252 253 254 256
264 251 242 238 246 246 250 254 250 256 261 263 268 273 277 281 283 286 288 288 285 280 279 269 264 247 242 243 248 258 275 285 294 298 299 298 300 301 298 294 286 278 273 267 259 254 253 254 254
250 241 229 226 235 238 237 240 242 246 252 258 264 271 276 280 282 285 290 293 295 296 299 291 281 246 242 247 252 260 277 287 293 296 297 296 295 294 292 290 285 279 275 269 262 257 254 252 250
248 236 228 224 226 231 231 236 239 241 249 256 263 267 271 275 280 286 293 298 304 305 305 304 298 270 264 271 277 278 285 286 289 292 292 287 282 281 281 280 278 277 274 269 262 257 253 250 250
258 247 236 229 232 234 233 235 238 241 248 257 264 270 274 277 282 287 294 300 306 309 311 314 315 304 304 310 310 305 298 286 282 287 287 280 272 270 269 268 268 268 265 261 258 257 255 252 249
265 262 250 240 238 244 248 250 253 255 259 263 268 273 278 283 287 292 295 299 307 312 315 319 320 324 324 326 326 322 309 291 279 280 283 279 270 264 260 259 258 259 259 255 254 256 258 257 254
302 279 275 261 252 251 257 264 266 268 269 270 270 273 279 286 291 293 295 299 305 311 316 318 318 321 320 319 319 315 306 294 281 275 275 275 271 264 258 254 251 251 252 251 251 254 258 259 261
339 319 304 292 281 278 283 285 286 286 281 273 268 269 277 285 288 291 294 299 304 308 311 313 314 314 314 312 311 306 298 291 285 278 273 271 269 265 260 257 253 251 249 249 249 251 255 258 262
336 328 322 309 305 301 300 305 311 311 299 286 275 271 276 281 286 293 297 301 305 307 308 309 308 308 307 305 303 300 295 290 286 283 277 271 267 264 261 259 258 256 253 251 251 252 255 258 262
337 331 325 313 318 318 313 311 314 320 321 313 310 308 299 294 295 297 300 303 306 307 308 307 305 304 303 300 298 295 290 286 283 280 277 273 270 266 260 256 255 257 258 256 254 254 256 259 262
325 326 328 334 339 332 324 321 321 320 321 322 321 318 311 306 304 303 303 304 305 305 305 304 303 301 298 296 294 291 288 284 280 276 273 271 269 267 263 258 254 253 255 255 255 255 256 258 260
320 319 316 322 328 327 326 325 321 320 321 319 318 315 311 309 307 307 306 305 305 304 303 301 299 296 294 292 290 287 284 281 278 275 272 269 266 264 262 259 256 253 251 251 253 255 256 257 259
314 311 303 309 319 323 323 324 322 322 321 319 317 315 313 312 311 309 308 308 307 305 303 301 299 296 294 291 289 286 283 280 277 273 270 267 265 262 260 258 256 253 251 250 249 251 254 256 258
313 320 311 309 315 320 322 321 321 320 319 319 318 316 314 313 311 310 309 308 307 305 303 301 300 298 295 293 289 286 282 278 275 272 269 266 263 261 258 256 255 254 252 250 248 248 251 254 257
313 319 319 317 317 316 316 316 319 320 320 320 318 316 315 313 312 311 310 308 306 304 302 301 299 297 296 294 291 288 285 281 276 271 267 263 261 259 256 255 254 253 252 250 248 247 247 250 253
Height
5933 5933 5934 5934 5935 5933 5932 5931 5929 5929 5930 5931 5930 5929 5929 5929 5928 5929 5926 5924 5922 5920 5919 5918 5918 5917 5917 5916 5916 5915 5914 5913 5913 5912 5912 5911 5910 5909 5908 5908 5907 5906 5905 5904 5902 5901 5899 5898 5897
5933 5934 5934 5934 5933 5932 5932 5931 5929 5927 5928 5929 5929 5929 5928 5928 5927 5926 5925 5923 5922 5921 5919 5918 5917 5917 5916 5915 5915 5914 5913 5912 5912 5911 5911 5910 5909 5908 5907 5907 5906 5905 5904 5903 5901 5900 5898 5897 5896
5933 5933 5934 5934 5933 5932 5932 5930 5928 5926 5926 5927 5928 5928 5927 5926 5925 5925 5924 5923 5922 5921 5919 5918 5917 5916 5915 5914 5913 5912 5912 5911 5911 5910 5909 5908 5908 5907 5906 5905 5905 5904 5903 5902 5901 5899 5898 5896 5895
5933 5933 5934 5933 5932 5931 5929 5928 5926 5925 5924 5925 5926 5926 5925 5925 5924 5923 5922 5921 5920 5919 5918 5917 5916 5915 5914 5913 5912 5911 5910 5909 5909 5908 5907 5906 5905 5904 5903 5903 5903 5902 5901 5901 5900 5899 5897 5896 5894
5931 5932 5932 5931 5930 5928 5926 5925 5925 5924 5924 5923 5924 5925 5925 5924 5922 5920 5920 5919 5918 5917 5916 5915 5914 5913 5912 5911 5910 5909 5908 5907 5906 5905 5904 5902 5901 5901 5900 5900 5899 5899 5898 5898 5897 5897 5896 5895 5893
5930 5931 5932 5930 5927 5925 5923 5923 5922 5922 5921 5921 5922 5923 5923 5923 5920 5919 5918 5917 5916 5915 5914 5913 5911 5910 5909 5908 5907 5906 5904 5903 5902 5901 5899 5898 5897 5896 5896 5896 5895 5895 5895 5894 5894 5894 5893 5892 5891
5927 5928 5929 5928 5925 5922 5921 5920 5920 5920 5919 5919 5919 5920 5921 5922 5920 5918 5916 5916 5915 5913 5912 5911 5909 5908 5906 5905 5903 5902 5900 5899 5897 5896 5894 5893 5892 5891 5891 5890 5890 5890 5890 5890 5890 5889 5889 5888 5887
5923 5926 5927 5925 5922 5919 5919 5919 5918 5917 5917 5917 5917 5917 5918 5919 5919 5917 5915 5913 5913 5911 5910 5908 5906 5904 5902 5900 5898 5897 5895 5893 5892 5890 5889 5887 5886 5886 5885 5884 5884 5884 5884 5885 5884 5884 5884 5883 5882
5920 5923 5924 5922 5919 5916 5915 5916 5915 5914 5914 5914 5914 5915 5915 5915 5915 5915 5914 5911 5909 5908 5906 5905 5903 5900 5898 5895 5893 5892 5890 5888 5886 5884 5882 5881 5880 5880 5879 5878 5878 5878 5878 5878 5878 5878 5877 5877 5876
5916 5918 5921 5919 5916 5913 5912 5913 5912 5911 5910 5910 5910 5911 5911 5912 5911 5912 5912 5909 5906 5905 5903 5900 5898 5895 5893 5890 5889 5887 5885 5883 5881 5879 5877 5876 5875 5874 5873 5872 5872 5871 5871 5872 5871 5871 5871 5871 5870
5911 5913 5915 5913 5912 5910 5910 5910 5910 5908 5907 5907 5907 5907 5907 5908 5907 5907 5908 5907 5904 5901 5898 5895 5892 5890 5887 5885 5883 5881 5879 5877 5875 5874 5872 5870 5869 5868 5867 5866 5865 5865 5865 5865 5865 5865 5865 5864 5864
5908 5909 5909 5908 5906 5905 5906 5906 5907 5905 5904 5904 5904 5903 5903 5903 5903 5902 5901 5901 5899 5895 5891 5888 5885 5883 5881 5879 5877 5875 5873 5871 5869 5868 5866 5864 5863 5862 5861 5860 5859 5859 5859 5858 5858 5858 5857 5858 5857
5904 5904 5904 5904 5903 5902 5901 5902 5903 5903 5902 5901 5900 5899 5899 5899 5898 5896 5893 5892 5890 5887 5883 5880 5876 5875 5873 5872 5870 5869 5867 5865 5863 5861 5859 5857 5856 5855 5855 5854 5854 5853 5853 5853 5852 5851 5851 5851 5851
5898 5898 5899 5900 5901 5900 5898 5898 5898 5899 5898 5895 5895 5895 5894 5893 5890 5888 5885 5882 5879 5876 5872 5869 5865 5863 5863 5864 5863 5861 5860 5858 5856 5855 5853 5851 5849 5849 5848 5847 5847 5847 5847 5847 5847 5846 5845 5845 5845
5893 5893 5893 5893 5892 5892 5892 5892 5894 5895 5892 5890 5890 5889 5888 5886 5882 5878 5875 5871 5867 5862 5860 5856 5851 5848 5849 5852 5853 5852 5851 5850 5849 5848 5846 5844 5843 5842 5841 5841 5841 5841 5841 5841 5841 5841 5840 5840 5840
5888 5888 5888 5887 5886 5886 5886 5887 5890 5889 5887 5885 5884 5882 5880 5878 5875 5871 5867 5863 5857 5850 5846 5838 5832 5831 5833 5838 5842 5842 5842 5840 5840 5839 5838 5837 5836 5835 5834 5835 5835 5834 5834 5835 5835 5835 5835 5835 5835
5883 5883 5883 5883 5882 5880 5880 5883 5887 5884 5882 5881 5879 5877 5875 5873 5870 5866 5861 5855 5847 5837 5831 5823 5814 5816 5820 5827 5830 5832 5832 5832 5831 5830 5829 5829 5828 5827 5828 5828 5828 5828 5828 5828 5829 5829 5829 5830 5830
5880 5879 5878 5878 5878 5878 5878 5879 5879 5877 5876 5876 5875 5873 5871 5868 5864 5859 5854 5847 5840 5831 5823 5816 5809 5806 5813 5817 5819 5822 5823 5824 5824 5823 5823 5822 5821 5821 5821 5822 5822 5822 5822 5823 5823 5824 5824 5825 5825
5876 5875 5875 5875 5875 5875 5874 5873 5873 5873 5873 5872 5871 5869 5866 5863 5859 5856 5851 5844 5837 5828 5822 5816 5809 5807 5809 5809 5811 5814 5815 5817 5818 5818 5817 5816 5816 5816 5816 5816 5817 5817 5817 5818 5818 5819 5819 5820 5821
5873 5872 5872 5872 5872 5872 5870 5869 5870 5869 5869 5868 5867 5864 5861 5858 5856 5853 5848 5841 5835 5827 5821 5814 5809 5807 5806 5806 5807 5808 5808 5810 5812 5812 5811 5810 5810 5810 5810 5810 5811 5811 5811 5812 5813 5814 5814 5815 5816
5869 5869 5868 5868 5868 5868 5867 5867 5866 5865 5864 5863 5861 5859 5855 5853 5850 5847 5843 5837 5832 5825 5818 5814 5810 5806 5804 5803 5803 5803 5803 5804 5806 5806 5805 5804 5804 5803 5804 5804 5804 5805 5805 5806 5807 5808 5809 5809 5810
5867 5866 5864 5864 5864 5864 5865 5863 5861 5859 5858 5856 5854 5852 5849 5846 5843 5840 5836 5831 5826 5821 5814 5809 5804 5802 5800 5799 5798 5798 5799 5800 5800 5800 5799 5798 5798 5797 5797 5797 5798 5798 5799 5799 5800 5801 5802 5803 5804
5864 5863 5862 5861 5860 5861 5860 5857 5855 5853 5851 5849 5846 5845 5843 5840 5837 5833 5829 5824 5820 5815 5810 5805 5801 5798 5795 5794 5793 5793 5793 5793 5792 5792 5791 5791 5791 5790 5790 5791 5791 5791 5791 5792 5793 5794 5796 5796 5797
5863 5862 5860 5859 5858 5858 5855 5853 5851 5848 5845 5842 5840 5839 5836 5833 5829 5826 5821 5816 5811 5807 5803 5799 5796 5793 5790 5787 5786 5786 5785 5785 5784 5783 5783 5782 5782 5782 5783 5783 5783 5783 5783 5783 5784 5785 5787 5789 5790
5862 5861 5859 5857 5856 5854 5851 5849 5848 5844 5841 5838 5835 5833 5829 5826 5822 5818 5812 5807 5801 5796 5793 5790 5787 5785 5782 5779 5778 5777 5776 5775 5774 5773 5772 5771 5771 5772 5773 5774 5775 5774 5774 5775 5775 5776 5778 5780 5781
5860 5859 5857 5855 5852 5850 5847 5844 5843 5839 5836 5833 5830 5826 5822 5818 5814 5808 5803 5797 5792 5787 5782 5779 5776 5773 5770 5768 5766 5764 5763 5762 5761 5760 5760 5759 5759 5759 5760 5762 5764 5764 5765 5765 5766 5767 5768 5770 5772
5859 5858 5855 5853 5850 5847 5843 5841 5837 5832 5829 5825 5821 5817 5812 5807 5802 5797 5791 5785 5779 5774 5770 5766 5762 5758 5755 5752 5749 5747 5745 5744 5744 5743 5743 5743 5743 5744 5745 5747 5749 5751 5753 5754 5755 5756 5758 5760 5762
5857 5855 5853 5850 5847 5844 5840 5836 5832 5827 5822 5817 5812 5806 5801 5795 5789 5783 5776 5771 5765 5759 5753 5748 5744 5740 5737 5734 5731 5727 5725 5723 5723 5723 5723 5724 5725 5726 5728 5730 5732 5735 5738 5740 5743 5745 5746 5749 5751
5855 5853 5849 5847 5844 5840 5836 5834 5828 5823 5818 5812 5806 5799 5793 5786 5779 5771 5764 5757 5750 5742 5735 5729 5723 5718 5713 5710 5707 5705 5702 5700 5699 5699 5699 5701 5703 5706 5708 5711 5713 5716 5720 5724 5728 5732 5734 5736 5739
5852 5850 5847 5844 5840 5836 5832 5830 5823 5817 5812 5805 5798 5791 5783 5775 5768 5760 5752 5743 5734 5725 5717 5709 5702 5696 5690 5684 5680 5676 5674 5673 5672 5672 5673 5675 5678 5681 5685 5689 5693 5696 5700 5705 5711 5716 5720 5723 5726